SCP
1 1 1 1 1 1 1 1 1 1 1 1 1 1 1 1 1 1 1 0 0 0 0 0 0 0 0 0 0 0 0 0 0 0 1 1 1 1 1 0 0 0 0
1 1 1 1 1 1 1 1 1 1 1 1 1 1 1 1 1 1 1 0 0 0 0 1 1 1 1 1 0 0 0 1 1 1 1 1 1 1 1 1 0 0 0
1 1 1 1 1 1 1 1 1 1 1 1 1 1 1 1 1 1 1 1 1 1 1 1 1 1 1 1 1 1 1 1 1 1 1 1 1 1 1 1 1 1 0
1 1 1 1 1 1 1 1 1 1 1 1 1 1 1 1 1 1 1 1 1 1 1 1 1 1 1 1 1 1 1 1 1 1 1 1 1 1 1 1 1 1 1
1 2 2 2 2 2 2 1 1 1 1 1 1 1 1 1 1 1 1 1 1 1 1 1 1 1 1 1 1 1 1 1 1 1 1 1 1 1 1 1 1 1 1
2 2 2 2 2 2 2 2 1 1 1 1 1 1 1 1 0 0 0 1 1 1 1 1 1 1 1 0 0 0 0 1 1 1 1 1 1 1 1 1 1 1 1
2 2 2 2 2 2 2 2 1 1 1 1 1 1 1 1 0 0 0 1 1 1 1 1 1 1 1 1 1 0 0 0 0 1 1 1 1 1 1 1 1 1 1
2 2 2 2 2 2 2 2 2 1 1 1 1 1 1 1 0 0 0 0 1 1 1 1 1 1 1 1 1 1 1 1 0 0 0 1 1 1 1 1 1 1 1
2 2 2 2 2 2 2 2 2 2 2 1 1 1 1 1 1 0 0 0 1 1 1 1 1 1 1 1 1 1 1 1 1 0 0 0 0 0 0 1 1 1 1
2 2 3 3 2 2 2 2 2 2 2 1 1 1 1 1 1 0 0 0 1 1 1 1 1 1 1 1 1 1 1 1 1 0 0 0 0 0 0 0 0 0 0
2 2 3 3 2 2 2 2 2 2 2 1 1 1 1 1 1 0 0 0 1 1 1 1 1 1 0 0 0 1 1 1 1 1 0 0 0 0 0 0 0 0 0
2 2 3 3 2 2 2 2 2 2 2 1 1 1 1 1 1 1 0 0 0 1 1 1 1 0 0 0 0 0 0 0 1 1 1 1 1 1 1 1 1 1 1
3 3 3 3 2 2 2 2 2 2 2 1 1 1 1 1 1 1 0 0 0 0 1 1 0 0 0 0 0 0 0 0 0 1 1 1 1 1 1 1 1 1 1
3 3 3 3 3 2 2 2 2 2 2 1 1 1 1 1 1 1 1 0 0 0 0 0 0 0 0 0 0 0 0 0 0 0 1 1 0 0 1 1 1 1 1
2 2 2 2 2 2 2 2 2 2 1 1 1 1 1 1 1 1 1 0 0 0 0 1 1 0 0 0 0 0 0 0 0 1 1 0 0 0 1 1 1 1 1
2 2 2 2 2 2 2 2 1 1 1 1 1 1 1 1 0 0 0 0 0 0 0 1 1 1 1 1 1 1 1 1 1 1 1 1 1 1 1 0 0 0 0
1 1 1 1 2 2 2 2 1 1 1 0 0 0 0 0 0 0 0 0 0 0 0 1 1 1 1 1 1 1 1 1 1 1 1 1 1 1 1 0 0 0 0
1 1 1 1 1 1 2 2 2 2 1 1 0 0 0 0 0 0 0 0 0 0 0 1 1 1 1 1 1 1 1 1 1 1 1 1 1 1 1 0 0 0 0
1 1 1 1 1 1 2 2 2 2 1 1 1 0 0 0 0 0 0 0 0 0 1 1 1 1 1 1 1 1 1 1 1 1 1 1 1 1 1 1 0 0 0
1 1 1 1 1 1 2 2 2 2 1 1 1 0 0 0 0 0 0 0 0 0 0 1 1 1 1 1 1 1 1 1 1 1 1 1 1 1 1 1 1 0 0
1 1 1 1 1 1 1 1 1 1 1 1 1 0 0 0 0 0 0 0 0 0 0 1 1 1 1 1 1 1 1 1 1 1 1 1 0 0 0 0 0 0 0
1 1 1 1 1 1 1 1 1 1 1 1 1 0 0 0 0 0 0 0 0 0 0 0 0 0 0 0 0 1 1 1 1 1 1 0 0 0 0 0 0 0 0
1 1 1 1 1 1 1 1 1 1 1 1 0 0 0 0 0 0 0 1 1 1 0 0 0 0 0 0 0 0 0 0 0 0 0 0 0 0 0 0 0 0 0
1 0 0 0 0 0 0 0 1 0 0 0 0 0 0 0 0 0 0 0 0 0 0 0 0 0 0 0 0 0 0 0 0 0 0 0 0 0 0 0 0 0 0
0 0 0 0 0 0 0 0 0 0 0 0 0 0 0 0 0 0 0 0 0 0 0 0 0 0 0 0 0 0 0 0 0 0 0 0 0 0 0 0 0 0 0
0 0 0 0 0 0 0 0 0 0 0 0 0 0 0 0 0 0 0 0 0 0 0 0 0 0 0 0 0 0 0 0 0 0 0 0 0 0 0 0 0 0 0
Wind_Speed
7 6 5 5 5 4 3 3 3 2 2 2 2 2 2 2 2 2 2 2 1 1 2 1 1 2 2 2 2 2 2 1 2 1 0 1 1 1 2 3 3 4 5
8 7 6 5 5 4 4 3 3 3 3 3 3 2 3 2 2 2 3 2 2 2 2 2 2 1 2 2 2 3 2 2 2 2 2 1 2 2 3 3 3 4 4
8 7 6 5 5 4 4 4 3 3 3 3 3 3 3 2 2 3 3 2 2 2 2 2 2 2 2 2 3 3 3 3 2 2 3 1 2 2 2 3 4 2 4
8 7 7 6 5 5 4 4 3 3 3 3 3 3 3 3 2 2 2 3 2 2 2 2 2 2 2 2 3 2 3 3 2 2 2 2 1 2 1 2 3 3 4
7 7 7 6 5 5 5 4 4 4 4 4 4 4 4 3 3 2 3 3 3 3 2 2 2 2 2 2 3 2 3 3 3 2 2 2 2 1 1 2 3 3 3
5 6 6 6 6 5 5 5 4 4 3 3 4 3 3 3 2 1 2 3 3 3 3 3 3 4 4 4 4 4 3 3 3 3 3 3 2 2 2 2 3 3 3
5 5 5 6 6 6 6 5 5 4 4 4 3 3 3 2 2 2 3 4 4 3 4 4 5 3 3 3 4 5 5 6 5 4 4 4 3 3 2 3 3 4 4
6 5 6 6 6 5 5 5 5 4 4 4 4 5 4 4 5 4 4 5 5 5 4 4 4 3 3 2 4 4 4 5 6 6 5 6 5 3 3 4 5 5 5
6 5 5 5 5 5 5 4 4 4 4 4 4 4 4 4 4 4 4 4 5 6 6 5 4 3 3 2 3 4 4 4 7 7 7 7 8 7 5 3 4 4 5
6 5 5 4 5 5 4 4 4 3 4 4 4 4 4 4 5 6 5 4 5 4 4 4 4 4 4 4 4 4 5 5 5 5 5 6 6 6 7 5 4 5 5
4 5 4 4 4 4 4 3 3 4 4 4 4 4 4 5 6 7 6 4 4 4 4 3 3 4 5 6 6 6 7 6 5 5 5 4 4 3 4 4 5 5 5
3 4 4 4 5 4 4 3 3 4 4 4 4 5 4 4 5 7 9 8 5 5 4 3 2 3 5 7 7 8 9 7 5 5 4 4 4 4 4 4 5 6 6
3 3 4 5 4 4 4 5 4 5 5 5 4 5 4 3 3 7 9 9 8 5 4 4 4 6 6 6 9 9 7 5 5 5 5 5 4 4 3 4 5 6 6
3 3 3 4 5 4 4 5 5 5 5 4 4 4 3 2 2 2 4 4 5 5 5 5 6 7 6 6 6 5 5 5 5 5 4 4 4 3 3 3 3 3 4
3 3 4 4 4 4 3 2 3 2 3 3 3 3 3 2 2 2 3 3 3 3 4 4 4 3 4 4 4 3 4 3 4 4 4 4 3 3 3 3 3 3 3
3 3 4 4 3 4 4 3 1 3 4 3 2 1 1 1 2 2 2 3 3 3 3 4 4 4 4 4 4 4 4 4 3 3 3 3 3 3 4 3 3 3 4
3 3 3 3 3 4 4 4 3 2 3 3 3 3 3 3 3 3 2 3 4 2 3 5 4 4 4 4 4 4 4 3 3 2 3 2 2 3 4 4 3 3 4
3 3 3 3 3 3 3 3 3 3 3 3 4 6 6 6 5 4 3 2 3 3 4 4 4 4 4 4 4 3 3 2 2 2 3 2 3 3 4 4 4 4 4
3 3 3 3 3 3 3 3 3 3 3 3 2 3 5 5 5 4 3 3 5 4 4 4 4 4 4 3 3 3 3 2 2 3 3 3 3 3 4 4 4 5 5
2 2 3 3 3 3 3 3 3 3 3 3 3 2 2 2 2 3 3 4 4 4 4 4 4 4 3 3 2 3 3 2 2 2 3 2 3 3 4 5 4 4 4
2 1 3 3 4 4 3 3 3 3 3 1 1 1 3 3 3 3 3 4 4 4 4 4 3 3 2 2 2 2 2 2 2 2 3 3 3 3 4 4 4 4 4
3 2 2 3 3 3 3 3 3 2 2 2 2 2 4 4 3 3 3 3 3 3 2 2 2 2 2 2 2 2 2 2 3 3 3 3 3 4 4 4 4 4 4
3 3 3 3 3 3 3 3 3 3 3 3 3 2 2 2 3 2 2 1 1 1 1 1 2 2 2 2 2 2 2 2 3 4 4 4 4 4 4 4 5 6 5
3 3 3 3 3 3 3 3 2 3 3 3 3 2 1 1 1 1 1 1 1 1 1 1 1 2 3 3 2 2 3 3 4 3 4 4 5 4 4 4 4 5 5
3 3 3 3 3 3 2 2 2 2 2 3 3 2 2 1 1 1 1 1 1 1 2 2 2 2 3 3 3 3 3 3 3 4 4 3 4 5 5 6 5 5 5
3 3 3 3 2 2 2 1 2 2 2 2 2 2 2 2 1 1 1 1 1 1 1 2 2 3 3 3 3 3 2 3 3 4 4 3 4 4 5 5 6 5 5
Wind_Direction
184 186 185 184 191 193 199 197 189 192 190 187 192 199 208 206 203 216 235 231 239 251 256 248 247 269 298 309 305 292 284 285 277 279 224 167 173 198 187 227 205 186 193
184 178 188 182 185 191 194 195 186 186 193 196 198 204 213 206 206 218 231 226 232 236 251 267 267 264 278 292 304 303 299 280 256 275 268 220 213 209 208 232 241 220 202
176 177 180 180 184 189 191 184 187 189 191 199 204 204 208 218 221 225 224 229 239 243 239 247 258 262 276 283 286 295 299 297 272 266 268 246 233 234 227 249 264 258 247
174 180 179 182 185 186 185 180 182 191 197 200 207 211 212 216 220 231 230 232 241 254 261 257 269 265 274 286 278 286 293 299 287 273 268 269 244 239 228 252 266 251 255
172 180 179 178 182 186 184 182 183 196 206 208 208 212 218 218 227 229 240 237 234 243 250 246 248 238 242 262 289 298 299 300 298 290 283 283 278 275 259 263 275 269 258
171 179 172 173 180 181 180 179 183 191 207 216 218 213 219 226 217 228 251 252 245 237 241 247 243 224 225 231 255 269 265 266 280 288 286 281 281 274 268 276 286 290 285
168 168 164 169 176 178 185 179 187 194 202 208 216 208 202 208 222 248 257 252 249 245 244 245 256 244 213 227 238 250 254 254 247 261 276 284 283 279 278 280 278 277 272
173 176 171 174 179 183 188 186 189 193 199 208 212 210 207 218 218 226 248 245 248 246 245 241 239 238 256 249 253 252 249 252 245 241 253 266 271 267 255 261 271 275 271
182 184 181 179 178 182 190 193 195 201 208 212 207 212 214 226 223 224 234 248 247 246 245 244 239 225 229 236 256 268 270 266 257 254 249 254 260 258 252 273 276 279 278
187 185 181 179 181 187 191 193 198 202 213 220 218 215 215 212 211 213 219 249 258 258 249 238 228 222 215 212 236 258 268 275 283 278 267 262 259 255 242 237 255 266 274
177 173 175 178 186 188 187 189 196 210 217 224 226 226 220 213 203 201 203 235 267 272 264 246 225 213 223 230 238 251 256 269 275 267 261 253 247 244 235 233 238 248 260
173 176 176 180 202 198 187 197 204 217 222 229 229 231 231 215 203 200 205 221 251 271 277 281 261 234 237 240 243 252 264 271 267 265 263 257 249 242 236 234 239 241 245
175 185 189 188 195 198 194 202 209 214 227 232 232 236 234 219 210 204 210 225 239 251 283 307 294 265 258 252 249 251 254 255 256 260 260 260 257 254 242 238 242 243 250
182 195 203 197 202 200 207 210 216 222 226 232 241 249 245 216 206 204 214 230 241 246 263 270 260 248 252 262 262 247 239 245 255 262 265 265 266 263 255 255 252 249 253
195 207 217 219 216 205 213 232 223 218 218 229 245 251 256 245 232 206 222 235 244 248 257 250 248 247 246 250 254 249 242 240 248 263 273 277 279 277 272 278 278 275 264
203 216 223 221 218 218 209 210 231 210 187 186 200 240 276 241 219 211 234 268 276 268 254 258 257 258 261 260 259 258 253 253 251 248 254 261 275 287 285 281 275 271 269
221 228 236 235 229 231 226 218 213 202 204 208 215 227 232 233 245 246 248 275 274 232 240 258 261 264 266 267 266 265 266 264 254 257 258 261 275 284 285 283 280 277 276
243 241 244 245 246 246 243 239 233 225 227 229 224 223 225 229 235 238 234 262 264 231 248 259 265 267 267 267 269 273 275 274 269 271 273 270 267 272 275 278 278 277 280
253 262 257 263 262 259 254 246 250 245 237 232 227 213 226 235 243 240 214 245 265 267 262 262 265 271 270 269 271 271 269 264 269 268 266 268 270 272 276 280 278 281 277
256 275 277 277 278 273 264 261 257 251 248 242 230 218 171 199 233 227 218 236 255 265 267 266 266 265 270 277 277 273 272 270 266 269 280 283 283 280 281 282 281 282 279
280 270 264 272 279 281 276 273 274 272 269 261 253 203 185 223 240 234 226 231 242 257 263 268 270 274 279 278 281 294 298 298 301 294 295 293 293 291 285 283 282 279 282
275 268 262 272 280 282 283 285 281 280 284 280 261 243 212 233 256 259 253 246 244 247 254 268 283 287 291 304 312 312 314 321 323 319 313 306 300 298 299 298 295 289 281
264 265 264 261 263 262 268 274 275 274 278 277 275 266 239 252 268 272 265 255 266 278 282 289 300 312 321 325 337 343 337 336 325 313 307 303 302 297 295 295 296 298 295
270 264 266 265 260 265 270 276 285 288 286 288 291 292 296 290 291 301 310 348 356 325 329 334 336 345 346 344 356 11 17 356 332 319 310 297 295 296 298 296 296 299 296
273 273 272 275 276 277 281 293 303 310 313 314 315 327 334 337 342 352 5 20 14 9 5 3 3 2 2 6 20 14 359 352 339 325 304 292 294 301 304 302 300 299 296
284 288 291 301 301 296 300 313 315 322 332 340 346 346 339 330 334 17 17 8 2 4 11 9 14 31 42 37 35 26 3 345 326 312 298 286 290 299 306 300 298 297 298